FW7889 Weather Reports


time (UTC)temp
C
wind
direction
speed
KPH
gust
KPH
rain 1hr
cm
rain 24hr
cm
rain mn
cm
humidity
%
barometer
mb
20260902101131 18 246 0.0 0.0 0.00 0.00 0.00 99 1072.6
20260902100127 18 199 1.6 1.6 0.00 0.00 0.00 99 1072.4
20260902095126 18 259 0.0 0.0 0.00 0.00 0.00 99 1072.8
20260902094123 18 275 0.0 0.0 0.00 0.00 0.00 99 1072.8
20260902093118 18 217 1.6 1.6 0.00 0.00 0.00 99 1072.6
20260902092113 18 226 0.0 1.6 0.00 0.00 0.00 99 1072.6
20260902091110 18 204 1.6 1.6 0.00 0.00 0.00 99 1072.7
20260902090105 18 155 3.2 3.2 0.00 0.00 0.00 99 1072.7
20260902085100 18 220 1.6 1.6 0.00 0.00 0.00 99 1072.7
20260902084058 18 177 1.6 3.2 0.00 0.00 0.00 99 1072.8
20260902083053 18 179 4.8 4.8 0.00 0.00 0.00 99 1072.6
20260902082051 18 169 3.2 3.2 0.00 0.00 0.00 99 1072.8
20260902081047 18 193 4.8 4.8 0.00 0.00 0.00 99 1072.8
20260902080045 18 216 1.6 1.6 0.00 0.00 0.00 99 1072.6
20260902075040 18 184 1.6 3.2 0.00 0.00 0.00 99 1072.6
20260902074036 18 125 4.8 4.8 0.00 0.00 0.00 99 1072.8
20260902073034 18 186 1.6 3.2 0.00 0.00 0.00 99 1072.6
20260902072032 18 145 4.8 4.8 0.00 0.00 0.00 99 1072.8
20260902071028 17 156 3.2 3.2 0.00 0.00 0.00 99 1072.7
20260902070023 17 225 1.6 1.6 0.00 0.00 0.00 99 1072.7
20260902065018 17 195 3.2 3.2 0.00 0.00 0.00 99 1072.5
20260902064015 17 250 1.6 1.6 0.00 0.00 0.00 99 1072.5
20260902063010 17 206 1.6 1.6 0.00 0.00 0.00 99 1072.7
20260902062010 17 238 0.0 1.6 0.00 0.00 0.00 99 1072.6
20260902061006 16 293 0.0 0.0 0.00 0.00 0.00 99 1072.7
20260902060004 16 304 0.0 0.0 0.00 0.00 0.00 99 1072.7
20260902055001 16 303 0.0 0.0 0.00 0.00 0.00 99 1072.7
20260902053957 16 304 0.0 0.0 0.00 0.00 0.00 99 1072.6
20260902052957 16 302 0.0 0.0 0.00 0.00 0.00 99 1072.5
20260902051953 16 310 0.0 0.0 0.00 0.00 0.00 99 1072.5
20260902050952 16 305 0.0 0.0 0.00 0.00 0.00 99 1072.6
20260902045947 16 294 0.0 0.0 0.00 0.00 0.00 99 1072.5
20260902044945 16 293 0.0 0.0 0.00 0.00 0.00 99 1072.4
20260902043942 15 296 0.0 1.6 0.00 0.00 0.00 99 1072.3
20260902042937 15 303 1.6 1.6 0.00 0.00 0.00 99 1072.2
20260902041932 15 303 1.6 1.6 0.00 0.00 0.00 99 1072.2
20260902040932 16 303 0.0 0.0 0.00 0.00 0.00 99 1072.2
20260902035931 16 300 0.0 0.0 0.00 2.03 2.03 99 1072.0
20260902034926 16 305 0.0 0.0 0.00 2.03 2.03 99 1072.2
20260902033926 16 302 0.0 0.0 0.00 2.03 2.03 99 1072.1
20260902032925 16 304 1.6 1.6 0.00 2.03 2.03 99 1071.8
20260902031920 16 296 0.0 0.0 0.00 2.03 2.03 99 1071.9
20260902030918 16 299 0.0 0.0 0.00 2.03 2.03 99 1071.9
20260902025917 16 287 0.0 0.0 0.00 2.03 2.03 99 1071.8
20260902024913 16 287 0.0 0.0 0.00 2.03 2.03 99 1071.9
20260902023909 17 284 0.0 0.0 0.00 2.03 2.03 99 1072.1
20260902022904 17 284 0.0 0.0 0.00 2.03 2.03 99 1072.1
20260902021902 17 290 0.0 0.0 0.00 2.03 2.03 99 1072.0
20260902020857 17 288 0.0 1.6 0.00 2.03 2.03 99 1072.1
20260902015854 17 266 0.0 1.6 0.00 2.03 2.03 99 1072.1
20260902014851 18 328 0.0 1.6 0.00 2.03 2.03 99 1071.6
20260902013846 18 251 0.0 0.0 0.00 2.03 2.03 99 1071.8
20260902012843 18 270 0.0 0.0 0.00 2.03 2.03 99 1071.5
20260902011840 18 260 1.6 1.6 0.00 2.03 2.03 99 1071.3
20260902010840 19 129 3.2 3.2 0.00 2.03 2.03 99 1071.5
20260902005840 19 256 0.0 0.0 0.00 2.03 2.03 99 1071.6
20260902004836 19 222 1.6 1.6 0.00 2.03 2.03 99 1071.2
20260902003831 20 234 0.0 1.6 0.00 2.03 2.03 99 1071.1
20260902002828 20 133 3.2 3.2 0.00 2.03 2.03 99 1071.3
20260902001828 20 204 1.6 1.6 0.00 2.03 2.03 99 1071.1
20260902000824 20 258 0.0 0.0 0.00 2.03 2.03 99 1070.7
20260901235819 20 267 0.0 0.0 0.00 2.03 2.03 99 1070.6
20260901234819 20 268 0.0 0.0 0.00 2.03 2.03 98 1070.5
20260901233815 20 277 0.0 1.6 0.00 2.03 2.03 97 1070.6
20260901232812 21 269 1.6 1.6 0.00 2.03 2.03 97 1070.6
20260901231809 21 199 6.4 8.0 0.00 2.03 2.03 96 1071.0
20260901230807 21 256 0.0 0.0 0.00 2.03 2.03 96 1070.7
20260901225808 21 253 0.0 1.6 0.00 2.03 2.03 95 1070.8
20260901224803 21 244 1.6 1.6 0.00 2.03 2.03 95 1070.5
20260901223801 21 257 1.6 1.6 0.00 2.03 2.03 95 1070.7
20260901222757 22 245 1.6 1.6 0.00 2.03 2.03 94 1070.8
20260901221755 22 271 1.6 1.6 0.00 2.03 2.03 93 1070.5
20260901220756 22 223 3.2 3.2 0.00 2.03 2.03 91 1070.3
20260901215754 22 271 1.6 1.6 0.00 2.03 2.03 90 1070.3
20260901214752 22 233 1.6 1.6 0.00 2.03 2.03 90 1070.2
20260901213752 22 282 0.0 0.0 0.00 2.03 2.03 90 1070.3
20260901212752 22 265 0.0 0.0 0.00 2.03 2.03 90 1070.2
20260901211748 22 273 1.6 1.6 0.00 2.03 2.03 90 1070.3
20260901210747 22 278 0.0 0.0 0.00 2.03 2.03 91 1070.2
20260901205744 22 272 3.2 3.2 0.00 2.03 2.03 92 1070.2
20260901204739 22 254 1.6 1.6 0.00 2.03 2.03 91 1070.3
20260901203736 22 278 1.6 3.2 0.00 2.03 2.03 91 1070.1
20260901202735 22 265 4.8 8.0 0.00 2.03 2.03 91 1070.0
20260901201732 22 265 4.8 4.8 0.00 2.03 2.03 90 1070.0
20260901200732 22 264 3.2 3.2 0.00 2.03 2.03 89 1070.3
20260901195731 22 237 0.0 1.6 0.00 2.03 2.03 88 1070.1
20260901194727 22 200 1.6 1.6 0.00 2.03 2.03 88 1070.2
20260901193724 22 236 1.6 1.6 0.00 2.03 2.03 88 1070.4
20260901192723 22 236 1.6 1.6 0.00 2.03 2.03 89 1070.3
20260901191720 21 189 3.2 3.2 0.00 2.03 2.03 92 1070.2
20260901190718 22 236 1.6 1.6 0.00 2.03 2.03 92 1070.3
20260901185716 21 223 1.6 1.6 0.00 2.03 2.03 93 1070.6
20260901184716 21 248 0.0 1.6 0.00 2.03 2.03 93 1070.4
20260901183713 21 234 1.6 1.6 0.00 2.03 2.03 93 1070.4
20260901182709 21 210 1.6 1.6 0.00 2.03 2.03 94 1070.4
20260901181709 21 223 1.6 1.6 0.00 2.03 2.03 94 1070.3
20260901180709 21 237 1.6 1.6 0.00 2.03 2.03 94 1070.4
20260901175708 21 237 1.6 1.6 0.00 2.03 2.03 94 1070.1
20260901174703 21 216 1.6 3.2 0.00 2.03 2.03 94 1070.2
20260901173700 21 246 0.0 1.6 0.00 2.03 2.03 94 1070.3
20260901172657 20 245 1.6 1.6 0.00 2.03 2.03 95 1070.5
20260901171655 20 254 0.0 0.0 0.00 2.03 2.03 95 1070.3
20260901170654 20 206 4.8 4.8 0.00 2.03 2.03 95 1070.1
20260901165653 20 206 1.6 3.2 0.00 2.03 2.03 95 1070.1
20260901164651 20 239 1.6 1.6 0.00 2.03 2.03 96 1070.3
20260901163647 20 245 0.0 0.0 0.00 2.03 2.03 97 1070.3
20260901162647 20 256 1.6 1.6 0.00 2.03 2.03 98 1070.0
20260901161645 20 256 1.6 1.6 0.00 2.03 2.03 98 1070.3
20260901160641 20 272 1.6 1.6 0.00 2.03 2.03 98 1070.2
20260901155641 20 225 1.6 1.6 0.00 2.03 2.03 98 1070.4
20260901154637 20 249 1.6 1.6 0.00 2.03 2.03 98 1070.5
20260901153633 20 251 1.6 1.6 0.00 2.03 2.03 98 1070.7
20260901152628 20 149 6.4 8.0 0.00 2.03 2.03 98 1070.4
20260901151628 20 171 4.8 4.8 0.00 2.03 2.03 98 1070.6
20260901150626 19 234 1.6 1.6 0.00 2.03 2.03 99 1070.4
20260901145624 18 221 1.6 3.2 0.00 2.03 2.03 99 1070.4
20260901144619 18 148 4.8 4.8 0.00 2.03 2.03 99 1070.5
20260901143615 18 129 9.7 12.9 0.00 2.03 2.03 99 1070.3
20260901142613 18 241 3.2 3.2 0.00 2.03 2.03 99 1069.9
20260901141613 17 157 4.8 8.0 0.00 2.03 2.03 99 1069.7
20260901140613 17 217 0.0 1.6 0.00 2.03 2.03 99 1069.5
20260901135612 17 232 1.6 3.2 0.13 2.03 2.03 99 1069.4
20260901134609 17 174 8.0 9.7 0.30 2.01 2.01 99 1068.9
20260901133608 17 193 4.8 4.8 0.48 1.96 1.96 99 1069.7
20260901132608 17 170 8.0 9.7 0.13 1.88 1.88 99 1070.2
20260901131607 16 84 4.8 4.8 0.00 1.85 1.85 99 1071.2
20260901130603 16 353 0.0 1.6 0.00 1.85 1.85 99 1070.8
20260901125600 16 35 3.2 3.2 0.00 1.85 1.85 99 1070.7
20260901124555 16 339 3.2 3.2 0.00 1.85 1.85 99 1070.8
20260901123551 16 334 0.0 1.6 0.00 1.85 1.85 99 1070.7
20260901122549 16 121 1.6 1.6 0.18 1.85 1.85 99 1070.6
20260901121549 16 284 0.0 0.0 0.00 1.83 1.83 99 1071.0
20260901120544 16 295 0.0 0.0 0.00 1.83 1.83 99 1070.8
20260901115541 16 313 0.0 0.0 0.00 1.83 1.83 99 1070.5
20260901114540 16 294 0.0 0.0 0.00 1.83 1.83 99 1071.0
20260901113537 16 291 0.0 0.0 0.18 1.83 1.83 99 1070.7
20260901112533 16 281 0.0 0.0 0.00 1.80 1.80 99 1070.8
20260901111532 16 285 0.0 0.0 0.30 1.80 1.80 99 1071.0
20260901110527 16 304 0.0 0.0 0.13 1.75 1.75 99 1071.2
20260901105525 16 277 0.0 0.0 0.61 1.73 1.73 99 1071.2
20260901104520 16 280 0.0 0.0 0.48 1.63 1.63 99 1071.2
20260901103515 16 268 0.0 1.6 0.00 1.55 1.55 99 1070.8
20260901102511 16 252 1.6 1.6 0.00 1.55 1.55 99 1070.6
20260901101508 16 259 0.0 0.0 0.00 1.55 1.55 99 1071.0